#timestamp,LO_Frequency,Hit 
1501290015.7,286047019.3,N
1501290035.6,286047020.9,N
1501290055.4,286047023.6,N
1501290075.2,286047019.0,N
1501290095.1,286047020.4,N
1501290096.0,286047020.4,N
1501290115.8,286047017.0,N
1501290135.6,286047015.8,N
1501290155.5,286047015.8,N
1501290175.3,286047016.8,N
1501290195.1,286047015.9,N
1501290215.9,286047018.0,N
1501290235.7,286047020.3,N
1501290255.5,286047017.4,N
1501290275.4,286047021.8,N
1501290295.2,286047021.3,N
1501290315.0,286047019.3,N
1501290315.9,286047019.3,N
1501290335.7,286047019.3,N
1501290355.6,286047022.0,N
1501290375.4,286047021.9,N
1501290395.2,286047020.9,N
1501290415.1,286047022.0,N
1501290416.0,286047022.0,N
1501290435.8,286047020.1,N
1501290455.6,286047018.4,N
1501290475.5,286047015.7,N
1501290495.3,286047016.0,N
1501290515.1,286047016.8,N
1501290535.9,286047017.9,N
1501290555.7,286047020.2,N
1501290575.5,286047019.6,N
1501290595.4,286047018.6,N
1501290615.2,286047016.4,N
1501290635.0,286047019.8,N
1501290635.9,286047019.8,N
1501290655.7,286047021.4,N
1501290675.6,286047021.6,N
1501290695.4,286047019.8,N
1501290715.2,286047017.6,N
1501290735.1,286047017.3,N
1501290736.0,286047017.3,N
1501290755.8,286047019.2,N
1501290775.6,286047019.2,N
1501290795.5,286047020.1,N
1501290815.3,286047021.1,N
1501290835.1,286047020.5,N
1501290855.9,286047020.2,N
1501290875.7,286047017.8,N
1501290895.5,286047018.1,N
1501290915.3,286047017.6,N
1501290935.2,286047019.7,N
1501290955.0,286047020.1,N
1501290955.9,286047020.1,N
1501290975.7,286047018.1,N
1501290995.6,286047018.0,N
1501291015.4,286047020.1,N
1501291035.2,286047018.5,N
1501291055.1,286047022.0,N
1501291056.0,286047022.0,N
1501291075.8,286047019.6,N
1501291095.6,286047020.3,N
1501291115.5,286047021.6,N
1501291135.3,286047017.5,N
1501291155.1,286047020.9,N
1501291175.8,286047025.0,N
1501291195.7,286047023.3,N
1501291215.5,286047025.4,N
1501291235.3,286047029.5,N
1501291255.2,286047026.6,N
1501291275.9,286047024.5,N
1501291295.7,286047023.6,N
1501291315.6,286047023.3,N
1501291335.4,286047022.7,N
1501291355.2,286047023.6,N
1501291375.1,286047023.3,N
1501291376.0,286047023.3,N
1501291395.8,286047025.8,N
1501291415.6,286047026.0,N
1501291435.4,286047025.1,N
1501291455.3,286047025.0,N
1501291475.1,286047025.0,N
1501291495.8,286047026.5,N
1501291515.7,286047026.5,N
1501291535.5,286047024.7,N
1501291555.3,286047025.7,N
1501291575.2,286047027.8,N
1501291595.9,286047027.9,N
1501291615.7,286047025.8,N
1501291635.6,286047026.5,N
1501291655.4,286047022.5,N
1501291675.2,286047025.0,N
1501291695.0,286047026.8,N
1501291696.0,286047026.8,N
1501291715.8,286047029.7,N
1501291735.6,286047025.7,N
1501291755.4,286047027.4,N
1501291775.3,286047030.1,N
1501291795.1,286047030.9,N
1501291815.8,286047025.4,N
1501291835.7,286047028.3,N
1501291855.5,286047026.5,N
1501291875.3,286047025.7,N
1501291895.2,286047027.2,N
1501291915.9,286047028.5,N
1501291935.7,286047036.4,N
1501291955.5,286047033.5,N
1501291975.4,286047034.5,N
1501291995.2,286047034.9,N
1501292015.0,286047034.9,N
1501292015.9,286047034.9,N
1501292035.8,286047034.5,N
1501292055.6,286047033.0,N
1501292075.4,286047030.0,N
1501292095.3,286047023.8,N
1501292115.1,286047024.4,N
1501292135.8,286047025.6,N
1501292155.7,286047028.2,N
1501292175.5,286047025.9,N
1501292195.3,286047029.4,N
1501292215.2,286047028.7,N
1501292235.9,286047027.0,N
1501292255.7,286047029.7,N
1501292275.5,286047031.0,N
1501292295.4,286047032.9,N
1501292315.2,286047028.5,N
1501292335.0,286047029.2,N
1501292335.9,286047029.2,N
1501292355.8,286047032.6,N
1501292375.6,286047032.7,N
1501292395.4,286047035.6,N
1501292415.3,286047037.4,N
1501292435.1,286047033.3,N
1501292436.0,286047033.3,N
1501292455.8,286047032.2,N
1501292475.7,286047034.2,N
1501292495.5,286047031.8,N
1501292515.3,286047032.0,N
1501292535.1,286047032.3,N
1501292555.9,286047031.8,N
1501292575.7,286047034.5,N
1501292595.5,286047034.6,N
1501292615.4,286047038.0,N
1501292635.2,286047031.7,N
1501292655.0,286047034.2,N
1501292655.9,286047034.2,N
1501292675.8,286047034.2,N
1501292695.6,286047033.3,N
1501292715.4,286047034.5,N
1501292735.3,286047034.1,N
1501292755.1,286047034.4,N
1501292756.0,286047034.4,N
1501292775.8,286047035.3,N
1501292795.7,286047037.3,N
1501292815.5,286047038.7,N
1501292835.3,286047035.8,N
1501292855.1,286047039.4,N
1501292875.9,286047036.6,N
1501292895.7,286047039.5,N
1501292915.5,286047038.8,N
1501292935.4,286047037.4,N
1501292955.2,286047035.6,N
1501292975.0,286047035.2,N
1501292975.9,286047035.2,N
1501292995.8,286047035.7,N
1501293015.6,286047036.4,N
1501293035.4,286047038.2,N
1501293055.3,286047039.9,N
1501293075.1,286047039.4,N
1501293076.0,286047039.4,N
1501293095.8,286047038.1,N
1501293115.7,286047042.1,N
1501293135.5,286047040.1,N
1501293155.3,286047041.8,N
1501293175.1,286047040.1,N
1501293195.9,286047040.1,N
1501293215.7,286047038.8,N
1501293235.5,286047039.5,N
1501293255.4,286047038.8,N
1501293275.2,286047039.9,N
1501293295.0,286047041.0,N
1501293295.9,286047041.0,N
1501293315.8,286047040.0,N
1501293335.6,286047043.2,N
1501293355.4,286047045.2,N
1501293375.3,286047044.3,N
1501293395.1,286047039.9,N
1501293396.0,286047039.9,N
1501293415.8,286047040.2,N
1501293435.7,286047038.6,N
1501293455.5,286047042.6,N
1501293475.3,286047042.6,N
1501293495.1,286047038.2,N
1501293515.9,286047043.8,N
1501293535.7,286047043.5,N
1501293555.5,286047045.3,N
1501293575.4,286047044.0,N
1501293595.2,286047041.7,N
